Location: Chochol
(49.7771°N, 14.9780°E)
Time: 13:12:10
(UTC+00:00)

STARLINK-1189 - Pass Details

Date: 09 April 2020
Orbit: 378 x 381 km, 53.0° (Epoch: 26 May)

Event Time Altitude Azimuth Distance (km) Brightness Sun altitude
Rises 18:19:07 0° 292° (WNW) 2,264 9.7 -6.1°
Reaches altitude 10° 18:21:11 10° 292° (WNW) 1,408 7.6 -6.4°
Maximum altitude 18:24:20 86° 204° (SSW) 389 2.9 -6.9°
Enters shadow 18:27:28 10° 115° (ESE) 1,400 5.0 -7.4°
